HARMAJA Weather Reports


Display with metric or nautical units.
time (UTC)temp
F
wind
direction
speed
MPH
gust
MPH
rain 1hr
in
rain 24hr
in
rain mn
in
humidity
%
barometer
mb
20260508104729 46 213 15.0 17.0 0.00 0.00 0.00 67 1026.6
20260508102729 46 208 15.0 17.0 0.00 0.00 0.00 68 1026.5
20260508100729 46 201 13.0 15.0 0.00 0.00 0.00 72 1026.4
20260508094728 50 12 8.0 11.0 0.00 0.00 0.00 53 1026.4
20260508092729 53 13 12.0 16.0 0.00 0.00 0.00 46 1026.3
20260508090729 50 13 13.0 17.0 0.00 0.00 0.00 45 1026.3
20260508084729 51 14 15.0 18.0 0.00 0.00 0.00 42 1026.3
20260508082728 49 6 10.0 13.0 0.00 0.00 0.00 51 1026.3
20260508080729 48 351 14.0 18.0 0.00 0.00 0.00 53 1026.2
20260508074728 48 2 12.0 14.0 0.00 0.00 0.00 55 1026.0
20260508072728 47 354 10.0 12.0 0.00 0.00 0.00 52 1026.0
20260508070729 47 355 13.0 16.0 0.00 0.00 0.00 52 1025.8
20260508064728 46 359 11.0 13.0 0.00 0.00 0.00 54 1025.8
20260508060728 45 8 10.0 12.0 0.00 0.00 0.00 59 1025.3
20260508052729 44 3 11.0 14.0 0.00 0.00 0.00 60 1024.9
20260508050728 44 6 13.0 17.0 0.00 0.00 0.00 63 1024.6
20260508044728 43 10 12.0 15.0 0.00 0.00 0.00 62 1024.4
20260508042728 43 10 9.0 14.0 0.00 0.00 0.00 61 1024.2
20260508040728 42 359 9.0 13.0 0.00 0.00 0.00 62 1024.0
20260508034728 42 351 11.0 12.0 0.00 0.00 0.00 60 1023.7
20260508032728 42 357 11.0 13.0 0.00 0.00 0.00 61 1023.5
20260508030728 42 2 12.0 14.0 0.00 0.00 0.00 63 1023.3
20260508024727 42 2 14.0 17.0 0.00 0.00 0.00 59 1023.0
20260508022727 42 3 15.0 19.0 0.00 0.00 0.00 63 1022.7
20260508020727 42 8 13.0 17.0 0.00 0.00 0.00 59 1022.5
20260508014727 42 10 14.0 17.0 0.00 0.00 0.00 61 1022.2
20260508012727 43 8 15.0 18.0 0.00 0.00 0.00 60 1022.0
20260508010727 43 360 17.0 22.0 0.00 0.00 0.00 61 1021.7
20260508004727 44 359 17.0 22.0 0.00 0.00 0.00 57 1021.4
20260508002727 44 352 19.0 23.0 0.00 0.00 0.00 57 1021.1
20260508000728 45 348 19.0 24.0 0.00 0.00 0.00 54 1020.9
20260507234727 45 346 17.0 21.0 0.00 0.00 0.00 54 1020.7
20260507232727 45 344 17.0 19.0 0.00 0.00 0.00 59 1020.4
20260507230727 45 343 17.0 19.0 0.00 0.00 0.00 57 1020.1
20260507224726 45 340 18.0 21.0 0.00 0.00 0.00 56 1019.8
20260507222727 46 335 17.0 20.0 0.00 0.00 0.00 54 1019.7
20260507220726 46 331 17.0 20.0 0.00 0.00 0.00 55 1019.5
20260507214727 46 328 17.0 19.0 0.00 0.00 0.00 54 1019.2
20260507212726 46 333 13.0 16.0 0.00 0.00 0.00 60 1019.0
20260507210726 46 337 17.0 18.0 0.00 0.00 0.00 55 1018.7
20260507204726 46 318 11.0 15.0 0.00 0.00 0.00 58 1018.4
20260507202726 45 278 9.0 10.0 0.00 0.00 0.00 60 1017.9
20260507200727 45 282 9.0 10.0 0.00 0.00 0.00 58 1018.0
20260507194726 44 270 11.0 11.0 0.00 0.00 0.00 66 1017.8
20260507192726 45 265 11.0 11.0 0.00 0.00 0.00 66 1017.5
20260507190725 45 263 13.0 14.0 0.00 0.00 0.00 61 1017.3
20260507184726 45 253 13.0 14.0 0.00 0.00 0.00 69 1017.1
20260507182725 44 239 10.0 12.0 0.00 0.00 0.00 75 1017.0
20260507180725 44 232 9.0 11.0 0.00 0.00 0.00 75 1017.0
20260507172725 45 237 9.0 11.0 0.00 0.00 0.00 79 1016.9
20260507170725 45 232 11.0 12.0 0.00 0.00 0.00 73 1016.9
20260507164726 45 223 10.0 11.0 0.00 0.00 0.00 75 1016.7
20260507162725 45 214 9.0 10.0 0.00 0.00 0.00 77 1016.7
20260507160725 44 201 8.0 9.0 0.00 0.00 0.00 79 1016.6
20260507154725 44 203 8.0 9.0 0.00 0.00 0.00 83 1016.5
20260507152724 45 182 7.0 8.0 0.00 0.00 0.00 81 1016.4
20260507150726 45 192 8.0 9.0 0.00 0.00 0.00 81 1016.5
20260507144725 44 204 7.0 9.0 0.00 0.00 0.00 81 1016.5
20260507142726 46 215 8.0 9.0 0.00 0.00 0.00 77 1016.5
20260507140725 46 171 9.0 10.0 0.00 0.00 0.00 80 1016.2
20260507134725 46 152 11.0 12.0 0.00 0.00 0.00 75 1016.0
20260507132724 48 152 9.0 12.0 0.00 0.00 0.00 73 1016.0
20260507130725 49 164 4.0 5.0 0.00 0.00 0.00 57 1016.0
20260507124724 48 190 4.0 4.0 0.00 0.00 0.00 51 1016.0
20260507122724 47 167 5.0 5.0 0.00 0.00 0.00 69 1016.1
20260507120725 46 165 5.0 6.0 0.00 0.00 0.00 72 1016.1
20260507114725 47 157 6.0 6.0 0.00 0.00 0.00 76 1016.1
20260507112724 46 151 6.0 7.0 0.00 0.00 0.00 77 1016.1
20260507110724 47 150 6.0 7.0 0.00 0.00 0.00 74 1016.1